星链-6340 (STARLINK-6340 )

导读 | 星芒AI

STARLINK-6340 是 SpaceX Starlink 项目中的一颗低轨通信卫星,属于第63批发射的星链卫星群。该卫星部署在近地轨道,旨在为全球用户提供高速互联网服务,特别是在网络基础设施薄弱的地区。它采用先进的推进和通信技术,支持星间链路,提高数据传输效率。作为星链星座的一部分,STARLINK-6340 有助于扩大覆盖范围,增强网络的稳定性和响应速度,推动全球互联网接入的普及。

基本信息
目录编号:
57361
目录名称:
STARLINK-6340
国际标识:
2023-099AK
轨道中心:
EARTH
卫星名称:
星链-6340
卫星全名:
星链-6340 (STARLINK-6340 )
卫星状态:
在轨 (已飞行889 天)
发射日期:
2023-07-16 UTC
国别 :
美国 (US)
星等 :
--
轨道信息
数据来源 国际轨道数据 AOE轨道数据
星历时间 2025-12-21T13:52:17+0800
13小时前
查看轨道信息
2025-12-20T23:00:00+0800
1天前
查看轨道信息
半长轴 6937.224km 6937.176km
偏心率 0.0001308 0.00026
轨道倾角 43.006° 43.003°
近地点辐角 279.719° 292.189°
升交点赤经 302.432° 305.807°
平近点角 80.350° 312.405°
近地点 558.179km 557.235km
远地点 559.995km 560.843km
周期 95.838分钟 95.837分钟
每日圈数 15.025337 15.025493
详细信息
固有亮度:
5
最大亮度:
2.5
卫星平台:
Starlink v1.5
覆盖范围:
全球
运营商:
太空探索技术公司
运营商所在国:
美国
制造商(研发单位):
太空探索技术公司
制造商所在国:
美国
使用方式:
暂无
卫星简介
星链(Starlink)计划是由太空探索技术公司(SpaceX)提出的一个巨型低轨卫星互联网星座项目,计划在2019年至2024年间在太空搭建由约1.2万颗卫星组成的“星链”网络,其中1584颗将部署在地球上空550千米处的近地轨道,并从2020年开始工作。该卫星仍在工作。
2D轨道图
3D轨道图
轨道高度分析图
轨道倾角分析图
轨道综合分析图
查看轨道综合分析图